QPF
0.12 0.10 0.07 0.08 0.08 0.07 0.10 0.13 0.13 0.13 0.12 0.09 0.07 0.05 0.03 0.01 0.02 0.04 0.05 0.05 0.05 0.07 0.08 0.08 0.08 0.08 0.08 0.07 0.07 0.07 0.07 0.06 0.07 0.07 0.06 0.09 0.09 0.10 0.09 0.07 0.08 0.10 0.09
0.07 0.06 0.05 0.07 0.08 0.07 0.08 0.10 0.09 0.11 0.12 0.08 0.05 0.04 0.04 0.04 0.07 0.07 0.07 0.06 0.04 0.03 0.05 0.05 0.05 0.06 0.07 0.09 0.08 0.08 0.09 0.10 0.10 0.09 0.07 0.08 0.09 0.11 0.11 0.10 0.08 0.10 0.12
0.04 0.05 0.06 0.06 0.06 0.06 0.06 0.07 0.07 0.09 0.10 0.07 0.05 0.05 0.06 0.06 0.08 0.07 0.06 0.06 0.04 0.03 0.03 0.03 0.03 0.03 0.04 0.05 0.07 0.09 0.08 0.09 0.09 0.07 0.06 0.07 0.08 0.09 0.09 0.09 0.09 0.09 0.12
0.04 0.06 0.06 0.06 0.06 0.07 0.08 0.09 0.09 0.10 0.10 0.09 0.08 0.07 0.07 0.05 0.05 0.06 0.03 0.03 0.04 0.04 0.04 0.03 0.02 0.02 0.04 0.05 0.06 0.07 0.06 0.05 0.04 0.05 0.06 0.07 0.09 0.08 0.08 0.07 0.07 0.06 0.08
0.04 0.04 0.06 0.08 0.06 0.07 0.09 0.09 0.09 0.10 0.11 0.09 0.07 0.06 0.05 0.04 0.04 0.04 0.03 0.03 0.02 0.03 0.04 0.04 0.03 0.03 0.03 0.04 0.06 0.06 0.06 0.05 0.04 0.04 0.04 0.06 0.08 0.10 0.10 0.08 0.06 0.05 0.05
0.05 0.06 0.06 0.07 0.06 0.07 0.07 0.07 0.07 0.08 0.09 0.08 0.03 0.03 0.03 0.02 0.02 0.03 0.03 0.02 0.03 0.04 0.04 0.04 0.06 0.05 0.04 0.02 0.03 0.05 0.05 0.05 0.06 0.08 0.08 0.08 0.09 0.11 0.12 0.10 0.07 0.06 0.06
0.05 0.06 0.05 0.08 0.07 0.07 0.06 0.05 0.06 0.06 0.06 0.05 0.03 0.02 0.01 0.01 0.01 0.01 0.02 0.02 0.02 0.02 0.03 0.04 0.04 0.05 0.05 0.04 0.04 0.03 0.03 0.03 0.05 0.07 0.08 0.10 0.11 0.12 0.12 0.11 0.09 0.08 0.07
0.04 0.04 0.05 0.06 0.06 0.06 0.05 0.05 0.06 0.07 0.04 0.04 0.05 0.04 0.03 0.02 0.02 0.01 0.01 0.02 0.02 0.02 0.03 0.03 0.04 0.05 0.05 0.06 0.05 0.03 0.02 0.04 0.05 0.05 0.05 0.04 0.05 0.08 0.12 0.11 0.10 0.08 0.06
0.03 0.04 0.05 0.05 0.05 0.05 0.05 0.04 0.04 0.06 0.05 0.04 0.03 0.03 0.04 0.04 0.03 0.03 0.02 0.02 0.04 0.04 0.04 0.04 0.06 0.07 0.06 0.07 0.06 0.06 0.03 0.04 0.05 0.05 0.05 0.04 0.05 0.05 0.07 0.07 0.06 0.05 0.04
0.02 0.02 0.04 0.05 0.07 0.05 0.05 0.03 0.03 0.03 0.04 0.04 0.03 0.04 0.04 0.03 0.03 0.04 0.03 0.03 0.03 0.03 0.03 0.03 0.04 0.09 0.11 0.11 0.10 0.07 0.05 0.04 0.04 0.05 0.06 0.05 0.05 0.06 0.05 0.04 0.03 0.03 0.03
0.02 0.02 0.03 0.05 0.05 0.04 0.04 0.03 0.04 0.04 0.03 0.03 0.04 0.04 0.03 0.03 0.03 0.03 0.04 0.03 0.03 0.03 0.03 0.03 0.03 0.05 0.08 0.11 0.16 0.14 0.10 0.08 0.06 0.05 0.05 0.05 0.06 0.08 0.06 0.04 0.02 0.03 0.04
0.03 0.02 0.03 0.04 0.04 0.04 0.04 0.04 0.04 0.04 0.04 0.05 0.05 0.05 0.05 0.04 0.03 0.03 0.03 0.03 0.04 0.03 0.01 0.01 0.02 0.03 0.05 0.06 0.07 0.11 0.16 0.14 0.09 0.05 0.04 0.04 0.04 0.05 0.05 0.04 0.03 0.03 0.05
0.04 0.03 0.03 0.03 0.03 0.04 0.04 0.04 0.04 0.03 0.03 0.05 0.06 0.06 0.06 0.05 0.04 0.03 0.03 0.03 0.03 0.03 0.01 0.00 0.00 0.01 0.02 0.02 0.02 0.03 0.10 0.17 0.14 0.08 0.06 0.04 0.04 0.04 0.03 0.04 0.05 0.05 0.05
0.05 0.04 0.03 0.03 0.03 0.02 0.03 0.04 0.04 0.04 0.05 0.05 0.06 0.06 0.05 0.05 0.04 0.04 0.04 0.04 0.04 0.02 0.02 0.02 0.00 0.00 0.00 0.01 0.01 0.01 0.07 0.15 0.15 0.12 0.09 0.06 0.04 0.03 0.02 0.03 0.04 0.06 0.06
0.05 0.05 0.03 0.02 0.02 0.02 0.03 0.03 0.03 0.03 0.05 0.06 0.05 0.04 0.05 0.04 0.04 0.04 0.04 0.03 0.03 0.02 0.02 0.02 0.01 0.00 0.01 0.00 0.00 0.00 0.02 0.08 0.12 0.12 0.09 0.05 0.03 0.03 0.02 0.02 0.02 0.03 0.04
0.03 0.03 0.02 0.01 0.02 0.02 0.02 0.03 0.03 0.02 0.03 0.03 0.03 0.03 0.03 0.03 0.04 0.03 0.04 0.03 0.03 0.03 0.02 0.01 0.01 0.00 0.01 0.00 0.00 0.00 0.01 0.02 0.04 0.07 0.06 0.03 0.03 0.02 0.02 0.02 0.02 0.02 0.04
0.02 0.02 0.01 0.01 0.01 0.01 0.02 0.02 0.02 0.02 0.02 0.02 0.02 0.02 0.02 0.01 0.02 0.02 0.02 0.03 0.03 0.03 0.02 0.00 0.00 0.01 0.02 0.02 0.01 0.01 0.00 0.01 0.01 0.02 0.03 0.03 0.02 0.02 0.02 0.02 0.01 0.01 0.01
0.01 0.01 0.01 0.01 0.01 0.01 0.01 0.01 0.01 0.01 0.01 0.02 0.01 0.01 0.01 0.01 0.02 0.02 0.02 0.02 0.03 0.03 0.02 0.01 0.01 0.01 0.02 0.02 0.02 0.02 0.01 0.00 0.00 0.01 0.01 0.01 0.01 0.01 0.01 0.01 0.01 0.01 0.01
0.00 0.00 0.01 0.01 0.01 0.01 0.00 0.00 0.01 0.01 0.02 0.02 0.02 0.02 0.02 0.02 0.02 0.03 0.02 0.02 0.02 0.03 0.03 0.02 0.02 0.02 0.02 0.02 0.02 0.01 0.01 0.01 0.00 0.00 0.00 0.00 0.00 0.00 0.00 0.00 0.00 0.00 0.00
0.00 0.01 0.01 0.01 0.01 0.01 0.00 0.01 0.01 0.01 0.01 0.01 0.02 0.02 0.02 0.02 0.03 0.04 0.03 0.03 0.03 0.03 0.03 0.02 0.01 0.02 0.02 0.02 0.02 0.02 0.02 0.02 0.01 0.01 0.01 0.01 0.01 0.01 0.00 0.00 0.00 0.00 0.00
0.00 0.01 0.01 0.01 0.01 0.01 0.01 0.02 0.02 0.01 0.01 0.01 0.01 0.01 0.01 0.02 0.02 0.03 0.03 0.04 0.04 0.03 0.03 0.03 0.02 0.02 0.03 0.02 0.02 0.02 0.02 0.03 0.04 0.02 0.02 0.02 0.02 0.02 0.01 0.00 0.01 0.01 0.01
0.00 0.00 0.00 0.01 0.01 0.01 0.02 0.02 0.02 0.02 0.02 0.01 0.01 0.02 0.01 0.01 0.02 0.03 0.03 0.03 0.03 0.03 0.03 0.03 0.03 0.04 0.04 0.03 0.03 0.02 0.02 0.03 0.03 0.03 0.03 0.02 0.02 0.02 0.02 0.01 0.01 0.01 0.01
0.00 0.00 0.00 0.00 0.00 0.01 0.01 0.01 0.01 0.02 0.02 0.02 0.02 0.02 0.01 0.02 0.02 0.03 0.02 0.03 0.03 0.03 0.03 0.03 0.04 0.04 0.04 0.04 0.04 0.03 0.03 0.03 0.03 0.03 0.03 0.03 0.04 0.03 0.02 0.02 0.02 0.02 0.02
0.00 0.00 0.00 0.00 0.00 0.00 0.00 0.01 0.01 0.01 0.01 0.01 0.02 0.02 0.02 0.02 0.02 0.02 0.02 0.02 0.02 0.02 0.03 0.03 0.03 0.04 0.04 0.04 0.05 0.04 0.04 0.03 0.02 0.02 0.02 0.02 0.02 0.02 0.03 0.02 0.02 0.02 0.02
0.00 0.00 0.01 0.01 0.01 0.01 0.00 0.00 0.01 0.01 0.01 0.01 0.02 0.02 0.01 0.01 0.01 0.01 0.01 0.01 0.02 0.01 0.01 0.02 0.02 0.02 0.02 0.02 0.03 0.04 0.04 0.04 0.02 0.02 0.02 0.01 0.01 0.02 0.02 0.02 0.02 0.02 0.02
0.01 0.01 0.01 0.01 0.02 0.01 0.01 0.01 0.01 0.01 0.01 0.01 0.02 0.02 0.02 0.02 0.02 0.01 0.01 0.01 0.01 0.01 0.01 0.01 0.01 0.01 0.01 0.01 0.02 0.03 0.03 0.03 0.03 0.02 0.02 0.02 0.01 0.03 0.02 0.01 0.02 0.02 0.03
MSLP
1013.71 1013.80 1013.81 1013.77 1013.71 1013.68 1013.69 1013.77 1013.89 1014.02 1014.13 1014.20 1014.22 1014.21 1014.21 1014.26 1014.38 1014.62 1014.95 1015.36 1015.79 1016.20 1016.54 1016.80 1016.98 1017.09 1017.17 1017.25 1017.35 1017.48 1017.61 1017.74 1017.83 1017.87 1017.87 1017.84 1017.82 1017.85 1017.94 1018.13 1018.39 1018.70 1019.03
1013.81 1013.94 1014.00 1013.99 1013.97 1013.97 1014.00 1014.09 1014.21 1014.35 1014.47 1014.55 1014.58 1014.58 1014.58 1014.61 1014.70 1014.89 1015.16 1015.51 1015.88 1016.26 1016.59 1016.86 1017.06 1017.20 1017.30 1017.39 1017.47 1017.55 1017.62 1017.66 1017.67 1017.65 1017.60 1017.55 1017.54 1017.59 1017.73 1017.95 1018.25 1018.58 1018.90
1013.90 1014.05 1014.14 1014.18 1014.21 1014.24 1014.31 1014.42 1014.56 1014.71 1014.84 1014.93 1014.97 1014.98 1014.96 1014.97 1015.03 1015.16 1015.36 1015.62 1015.93 1016.24 1016.53 1016.79 1016.99 1017.14 1017.26 1017.36 1017.43 1017.48 1017.51 1017.51 1017.47 1017.41 1017.34 1017.29 1017.29 1017.36 1017.52 1017.77 1018.07 1018.40 1018.71
1014.00 1014.15 1014.26 1014.33 1014.40 1014.48 1014.59 1014.73 1014.89 1015.05 1015.19 1015.28 1015.33 1015.33 1015.31 1015.30 1015.31 1015.38 1015.50 1015.68 1015.90 1016.13 1016.36 1016.57 1016.76 1016.92 1017.06 1017.17 1017.26 1017.32 1017.35 1017.34 1017.29 1017.22 1017.15 1017.10 1017.11 1017.19 1017.35 1017.59 1017.88 1018.18 1018.46
1014.14 1014.26 1014.37 1014.47 1014.58 1014.70 1014.84 1015.00 1015.18 1015.34 1015.48 1015.57 1015.62 1015.62 1015.59 1015.55 1015.53 1015.53 1015.58 1015.66 1015.78 1015.92 1016.08 1016.24 1016.40 1016.56 1016.73 1016.88 1017.01 1017.12 1017.19 1017.21 1017.19 1017.14 1017.07 1017.03 1017.04 1017.10 1017.24 1017.45 1017.69 1017.95 1018.18
1014.33 1014.42 1014.52 1014.64 1014.77 1014.92 1015.08 1015.26 1015.43 1015.58 1015.70 1015.78 1015.82 1015.81 1015.78 1015.73 1015.67 1015.62 1015.59 1015.59 1015.61 1015.65 1015.73 1015.84 1015.97 1016.14 1016.34 1016.54 1016.75 1016.93 1017.07 1017.15 1017.18 1017.17 1017.13 1017.09 1017.08 1017.11 1017.21 1017.36 1017.55 1017.74 1017.93
1014.57 1014.63 1014.72 1014.85 1015.00 1015.17 1015.34 1015.51 1015.66 1015.78 1015.88 1015.93 1015.95 1015.94 1015.90 1015.84 1015.76 1015.67 1015.59 1015.51 1015.44 1015.40 1015.40 1015.45 1015.56 1015.74 1015.97 1016.24 1016.52 1016.79 1017.02 1017.18 1017.28 1017.30 1017.29 1017.24 1017.21 1017.21 1017.25 1017.34 1017.47 1017.61 1017.75
1014.84 1014.88 1014.97 1015.11 1015.27 1015.45 1015.61 1015.76 1015.88 1015.97 1016.02 1016.05 1016.05 1016.03 1015.99 1015.93 1015.84 1015.74 1015.61 1015.48 1015.34 1015.23 1015.15 1015.15 1015.23 1015.41 1015.67 1016.00 1016.36 1016.72 1017.03 1017.27 1017.43 1017.50 1017.50 1017.46 1017.40 1017.36 1017.36 1017.39 1017.47 1017.57 1017.67
1015.10 1015.14 1015.24 1015.39 1015.57 1015.75 1015.90 1016.02 1016.10 1016.14 1016.15 1016.14 1016.12 1016.10 1016.07 1016.03 1015.96 1015.85 1015.71 1015.54 1015.35 1015.18 1015.04 1014.99 1015.04 1015.20 1015.48 1015.85 1016.26 1016.69 1017.07 1017.38 1017.58 1017.69 1017.71 1017.67 1017.60 1017.53 1017.50 1017.51 1017.55 1017.63 1017.72
1015.30 1015.36 1015.48 1015.65 1015.84 1016.02 1016.15 1016.24 1016.28 1016.27 1016.25 1016.21 1016.18 1016.17 1016.16 1016.15 1016.11 1016.03 1015.89 1015.70 1015.48 1015.26 1015.08 1014.97 1014.98 1015.12 1015.39 1015.76 1016.20 1016.66 1017.08 1017.43 1017.67 1017.81 1017.85 1017.81 1017.75 1017.68 1017.65 1017.65 1017.70 1017.78 1017.87
1015.41 1015.50 1015.65 1015.84 1016.04 1016.21 1016.33 1016.39 1016.39 1016.36 1016.30 1016.25 1016.22 1016.23 1016.26 1016.28 1016.29 1016.24 1016.12 1015.93 1015.70 1015.44 1015.22 1015.06 1015.02 1015.11 1015.35 1015.70 1016.13 1016.59 1017.03 1017.39 1017.66 1017.81 1017.87 1017.87 1017.82 1017.78 1017.77 1017.80 1017.88 1017.98 1018.09
1015.42 1015.53 1015.70 1015.91 1016.12 1016.29 1016.40 1016.44 1016.42 1016.36 1016.29 1016.23 1016.22 1016.25 1016.31 1016.39 1016.43 1016.43 1016.34 1016.17 1015.93 1015.65 1015.39 1015.19 1015.09 1015.14 1015.32 1015.63 1016.03 1016.46 1016.89 1017.25 1017.52 1017.70 1017.79 1017.82 1017.82 1017.83 1017.86 1017.94 1018.05 1018.19 1018.34
1015.34 1015.47 1015.65 1015.86 1016.07 1016.24 1016.34 1016.37 1016.34 1016.27 1016.19 1016.15 1016.15 1016.21 1016.30 1016.41 1016.50 1016.53 1016.47 1016.32 1016.09 1015.80 1015.51 1015.28 1015.14 1015.13 1015.26 1015.52 1015.87 1016.26 1016.66 1017.01 1017.29 1017.49 1017.62 1017.70 1017.76 1017.82 1017.92 1018.05 1018.21 1018.39 1018.55
1015.20 1015.33 1015.51 1015.71 1015.91 1016.07 1016.17 1016.20 1016.16 1016.09 1016.02 1015.99 1016.00 1016.07 1016.19 1016.33 1016.44 1016.49 1016.46 1016.33 1016.10 1015.82 1015.53 1015.27 1015.10 1015.05 1015.14 1015.35 1015.65 1016.01 1016.38 1016.73 1017.01 1017.24 1017.41 1017.54 1017.66 1017.79 1017.94 1018.13 1018.33 1018.53 1018.71
1015.03 1015.13 1015.30 1015.49 1015.68 1015.83 1015.92 1015.95 1015.92 1015.85 1015.79 1015.75 1015.77 1015.84 1015.96 1016.10 1016.22 1016.28 1016.25 1016.14 1015.93 1015.67 1015.38 1015.13 1014.96 1014.89 1014.95 1015.13 1015.40 1015.73 1016.08 1016.42 1016.72 1016.98 1017.19 1017.38 1017.56 1017.74 1017.95 1018.18 1018.40 1018.62 1018.80
1014.81 1014.90 1015.04 1015.21 1015.38 1015.52 1015.62 1015.64 1015.62 1015.56 1015.50 1015.45 1015.46 1015.51 1015.60 1015.71 1015.81 1015.86 1015.85 1015.74 1015.56 1015.32 1015.07 1014.85 1014.69 1014.63 1014.69 1014.85 1015.11 1015.43 1015.78 1016.12 1016.44 1016.73 1016.98 1017.22 1017.44 1017.68 1017.92 1018.17 1018.41 1018.63 1018.80
1014.56 1014.62 1014.74 1014.89 1015.04 1015.18 1015.27 1015.30 1015.28 1015.22 1015.15 1015.08 1015.05 1015.06 1015.11 1015.18 1015.24 1015.27 1015.24 1015.15 1015.00 1014.80 1014.60 1014.42 1014.31 1014.28 1014.36 1014.54 1014.80 1015.11 1015.46 1015.81 1016.15 1016.46 1016.75 1017.02 1017.28 1017.55 1017.82 1018.08 1018.33 1018.54 1018.70
1014.22 1014.27 1014.36 1014.49 1014.64 1014.77 1014.86 1014.90 1014.88 1014.81 1014.72 1014.63 1014.56 1014.51 1014.50 1014.51 1014.53 1014.52 1014.49 1014.41 1014.29 1014.15 1014.01 1013.89 1013.83 1013.85 1013.97 1014.16 1014.43 1014.75 1015.09 1015.45 1015.79 1016.11 1016.42 1016.72 1017.01 1017.30 1017.58 1017.86 1018.11 1018.33 1018.50
1013.78 1013.81 1013.89 1014.02 1014.15 1014.28 1014.37 1014.41 1014.38 1014.31 1014.20 1014.07 1013.95 1013.85 1013.78 1013.73 1013.70 1013.67 1013.63 1013.57 1013.49 1013.41 1013.33 1013.28 1013.28 1013.34 1013.49 1013.70 1013.97 1014.28 1014.61 1014.96 1015.29 1015.62 1015.93 1016.24 1016.55 1016.85 1017.16 1017.46 1017.73 1017.98 1018.18
1013.23 1013.25 1013.33 1013.44 1013.57 1013.69 1013.77 1013.81 1013.78 1013.69 1013.55 1013.39 1013.23 1013.08 1012.96 1012.87 1012.81 1012.76 1012.72 1012.68 1012.65 1012.61 1012.59 1012.60 1012.65 1012.75 1012.90 1013.11 1013.37 1013.66 1013.97 1014.28 1014.60 1014.91 1015.21 1015.53 1015.84 1016.17 1016.50 1016.84 1017.16 1017.46 1017.73
1012.60 1012.62 1012.68 1012.78 1012.89 1013.00 1013.07 1013.09 1013.05 1012.95 1012.79 1012.60 1012.41 1012.23 1012.08 1011.96 1011.88 1011.83 1011.80 1011.78 1011.78 1011.79 1011.81 1011.86 1011.93 1012.04 1012.20 1012.39 1012.61 1012.86 1013.12 1013.39 1013.67 1013.95 1014.24 1014.55 1014.88 1015.23 1015.60 1015.99 1016.38 1016.76 1017.13
1011.94 1011.95 1012.00 1012.08 1012.17 1012.25 1012.30 1012.30 1012.24 1012.12 1011.94 1011.74 1011.53 1011.33 1011.16 1011.03 1010.95 1010.90 1010.88 1010.89 1010.91 1010.95 1010.99 1011.05 1011.13 1011.23 1011.35 1011.50 1011.68 1011.87 1012.07 1012.29 1012.52 1012.77 1013.04 1013.35 1013.69 1014.07 1014.49 1014.95 1015.42 1015.91 1016.39
1011.33 1011.32 1011.35 1011.40 1011.46 1011.51 1011.53 1011.49 1011.40 1011.26 1011.07 1010.86 1010.64 1010.43 1010.26 1010.13 1010.05 1010.00 1009.99 1010.01 1010.03 1010.07 1010.11 1010.16 1010.22 1010.29 1010.37 1010.47 1010.59 1010.72 1010.86 1011.03 1011.22 1011.44 1011.69 1012.00 1012.36 1012.77 1013.25 1013.77 1014.34 1014.93 1015.53
1010.83 1010.80 1010.80 1010.82 1010.84 1010.84 1010.82 1010.75 1010.62 1010.45 1010.25 1010.03 1009.80 1009.60 1009.42 1009.29 1009.20 1009.14 1009.12 1009.12 1009.13 1009.14 1009.15 1009.17 1009.19 1009.22 1009.26 1009.31 1009.37 1009.46 1009.57 1009.70 1009.86 1010.06 1010.31 1010.62 1011.00 1011.45 1011.97 1012.56 1013.20 1013.89 1014.58
1010.45 1010.40 1010.37 1010.35 1010.33 1010.29 1010.22 1010.11 1009.96 1009.77 1009.54 1009.31 1009.07 1008.86 1008.67 1008.51 1008.40 1008.31 1008.24 1008.20 1008.16 1008.12 1008.08 1008.05 1008.03 1008.02 1008.02 1008.04 1008.09 1008.16 1008.25 1008.37 1008.53 1008.74 1009.00 1009.32 1009.72 1010.20 1010.76 1011.39 1012.09 1012.83 1013.59
1010.16 1010.10 1010.05 1010.00 1009.95 1009.87 1009.76 1009.62 1009.44 1009.22 1008.98 1008.72 1008.47 1008.22 1008.00 1007.80 1007.63 1007.48 1007.34 1007.21 1007.10 1006.99 1006.89 1006.81 1006.74 1006.70 1006.69 1006.71 1006.76 1006.85 1006.97 1007.12 1007.31 1007.54 1007.83 1008.18 1008.60 1009.09 1009.67 1010.32 1011.04 1011.80 1012.59
Thickness
5773 5773 5771 5771 5772 5772 5771 5770 5770 5768 5767 5766 5766 5765 5764 5763 5762 5761 5758 5753 5752 5750 5749 5748 5747 5745 5743 5742 5740 5738 5737 5735 5734 5733 5732 5730 5729 5727 5726 5725 5723 5722 5721
5773 5773 5772 5771 5772 5772 5771 5770 5769 5768 5768 5767 5765 5764 5763 5762 5760 5759 5758 5755 5752 5750 5748 5747 5746 5745 5743 5741 5739 5738 5737 5735 5734 5733 5731 5730 5728 5727 5725 5724 5722 5721 5720
5772 5772 5773 5772 5772 5771 5770 5769 5769 5769 5768 5767 5765 5764 5763 5761 5761 5758 5758 5757 5755 5751 5748 5747 5745 5744 5742 5741 5739 5738 5737 5735 5734 5733 5732 5730 5728 5726 5724 5723 5722 5720 5719
5771 5772 5773 5773 5771 5771 5771 5770 5770 5769 5767 5767 5765 5764 5763 5761 5759 5758 5758 5757 5755 5754 5749 5746 5744 5743 5742 5740 5739 5737 5736 5735 5733 5732 5731 5730 5728 5726 5724 5722 5721 5719 5717
5772 5773 5772 5771 5771 5772 5772 5772 5770 5768 5766 5765 5765 5763 5763 5761 5760 5759 5758 5757 5755 5753 5751 5746 5744 5742 5741 5739 5738 5736 5735 5733 5732 5732 5730 5729 5727 5725 5724 5722 5720 5719 5717
5773 5773 5773 5771 5772 5772 5770 5769 5767 5766 5765 5765 5766 5764 5763 5762 5761 5759 5758 5758 5755 5754 5752 5749 5746 5744 5741 5739 5737 5735 5734 5732 5731 5730 5729 5728 5726 5725 5723 5721 5720 5718 5717
5774 5773 5775 5772 5772 5772 5770 5770 5768 5766 5765 5765 5763 5761 5762 5763 5762 5760 5759 5758 5756 5754 5752 5749 5748 5746 5743 5739 5736 5734 5733 5731 5730 5729 5728 5726 5725 5724 5723 5721 5719 5718 5716
5774 5776 5773 5774 5773 5771 5769 5769 5767 5766 5766 5765 5762 5759 5756 5756 5758 5761 5759 5756 5755 5754 5752 5750 5747 5744 5743 5742 5737 5734 5731 5730 5728 5727 5726 5725 5723 5722 5721 5720 5718 5717 5715
5775 5774 5774 5774 5772 5773 5771 5769 5768 5765 5763 5765 5765 5761 5755 5752 5754 5756 5755 5755 5753 5752 5752 5750 5748 5745 5743 5741 5738 5733 5731 5729 5727 5725 5724 5723 5721 5720 5719 5718 5716 5715 5713
5776 5775 5774 5773 5773 5774 5771 5771 5770 5768 5764 5763 5763 5762 5761 5758 5752 5749 5753 5755 5753 5751 5750 5750 5748 5745 5742 5740 5736 5733 5730 5727 5725 5724 5722 5721 5719 5718 5717 5716 5715 5713 5711
5776 5776 5774 5773 5772 5773 5771 5770 5768 5768 5768 5765 5764 5763 5760 5758 5757 5751 5746 5749 5752 5752 5751 5749 5747 5746 5743 5740 5737 5733 5729 5726 5724 5722 5720 5718 5717 5715 5714 5713 5712 5711 5709
5778 5776 5775 5773 5772 5772 5770 5769 5768 5768 5766 5764 5764 5763 5760 5757 5755 5753 5748 5747 5747 5750 5750 5749 5747 5745 5743 5741 5737 5731 5727 5725 5722 5720 5718 5716 5715 5713 5712 5711 5710 5708 5707
5779 5776 5777 5773 5773 5771 5770 5769 5767 5767 5765 5762 5761 5762 5762 5759 5758 5755 5751 5748 5746 5748 5747 5748 5747 5745 5743 5739 5736 5730 5726 5723 5720 5718 5716 5714 5713 5711 5710 5709 5707 5706 5705
5782 5779 5776 5774 5772 5771 5771 5769 5770 5767 5765 5762 5762 5760 5760 5760 5758 5755 5752 5747 5744 5745 5745 5744 5746 5744 5741 5738 5733 5728 5727 5722 5719 5716 5714 5712 5710 5709 5707 5706 5704 5703 5701
5782 5778 5776 5774 5772 5771 5769 5768 5768 5766 5764 5763 5763 5761 5759 5759 5758 5756 5753 5750 5744 5739 5740 5742 5743 5742 5739 5735 5730 5728 5726 5721 5717 5715 5712 5710 5708 5706 5704 5702 5701 5699 5698
5779 5778 5776 5774 5772 5770 5769 5767 5767 5765 5763 5761 5760 5758 5756 5758 5756 5755 5752 5750 5747 5743 5739 5742 5741 5741 5736 5734 5728 5726 5724 5720 5716 5713 5710 5707 5705 5703 5701 5699 5698 5696 5694
5778 5776 5774 5773 5771 5770 5769 5766 5766 5764 5762 5760 5759 5757 5754 5753 5753 5753 5751 5748 5746 5743 5737 5739 5740 5737 5731 5728 5726 5724 5723 5720 5718 5712 5708 5705 5702 5700 5698 5696 5694 5693 5691
5778 5775 5773 5771 5770 5769 5767 5765 5763 5763 5760 5758 5756 5754 5752 5752 5748 5748 5746 5744 5742 5740 5736 5731 5734 5733 5728 5726 5723 5720 5721 5720 5718 5713 5708 5704 5701 5698 5695 5693 5691 5689 5688
5776 5775 5772 5770 5768 5767 5766 5764 5762 5760 5759 5756 5754 5751 5749 5747 5744 5744 5741 5741 5740 5739 5735 5731 5730 5729 5727 5724 5719 5718 5718 5715 5715 5713 5707 5703 5699 5696 5693 5690 5688 5686 5684
5775 5772 5770 5768 5767 5765 5764 5762 5760 5758 5756 5754 5752 5749 5747 5745 5742 5740 5738 5735 5735 5733 5731 5729 5727 5725 5722 5720 5716 5714 5714 5713 5711 5712 5707 5703 5698 5694 5691 5688 5686 5683 5681
5774 5771 5769 5767 5765 5763 5762 5759 5757 5756 5752 5750 5749 5747 5745 5741 5738 5735 5735 5733 5730 5728 5727 5725 5723 5721 5718 5714 5713 5712 5710 5709 5708 5707 5704 5702 5699 5695 5691 5687 5684 5681 5678
5771 5769 5767 5765 5763 5763 5757 5753 5751 5751 5749 5747 5744 5743 5742 5739 5735 5730 5728 5725 5723 5722 5721 5719 5718 5715 5711 5711 5709 5708 5706 5703 5700 5704 5698 5698 5697 5694 5692 5688 5684 5680 5676
5768 5765 5764 5762 5760 5756 5751 5748 5745 5746 5746 5744 5741 5739 5740 5739 5733 5730 5726 5721 5719 5715 5712 5712 5712 5710 5708 5707 5703 5701 5698 5696 5695 5698 5694 5693 5693 5690 5689 5687 5682 5677 5673
5765 5762 5760 5759 5756 5753 5748 5744 5741 5742 5742 5740 5738 5736 5733 5731 5729 5724 5722 5720 5718 5716 5711 5708 5707 5706 5704 5701 5697 5695 5693 5691 5691 5692 5689 5686 5688 5686 5686 5683 5679 5674 5670
5762 5760 5758 5755 5752 5749 5744 5741 5736 5739 5739 5737 5735 5733 5729 5726 5720 5715 5714 5713 5712 5711 5707 5704 5700 5698 5695 5693 5690 5689 5688 5686 5686 5688 5687 5682 5683 5681 5680 5678 5676 5671 5667
5759 5757 5754 5752 5750 5747 5742 5737 5732 5737 5735 5735 5732 5729 5723 5720 5714 5709 5708 5706 5704 5704 5703 5701 5696 5693 5692 5689 5685 5682 5682 5681 5681 5681 5682 5676 5675 5673 5672 5674 5672 5668 5663